Hourly Data Report for October 01, 2013

All times are specified in Local Standard Time (LST). Add 1 hour to adjust for Daylight Saving Time where and when it is observed.

TORONTO INTL A
ONTARIO

43°40'36.000" N
79°37'50.000" W
173.40 m
6158731
71624
YYZ

Download Data

Hourly Data (October 2013)
Hourly Data Report for October 1, 2013
Temp Definition
°C
Dew Point Temp Definition
°C
Rel Hum Definition
%
Wind Dir Definition
10's deg

Wind Spd Definition
km/h
Visibility Definition
km
Stn Press Definition
kPa
Hmdx Definition


Wind Chill Definition


Weather Definition


TIME
00:00 Legend Double Dagger 14.1 12.2 88 26 6 24.1 99.43     LegendNANA
01:00 Legend Double Dagger 13.7 11.9 89 27 6 24.1 99.46     Mainly Clear
02:00 Legend Double Dagger 13.0 11.7 92 27 6 24.1 99.48     LegendNANA
03:00 Legend Double Dagger 12.7 11.3 91 29 7 24.1 99.48     LegendNANA
04:00 Legend Double Dagger 12.5 11.1 91 26 6 19.3 99.48     Clear
05:00 Legend Double Dagger 11.7 10.6 93 27 9 16.1 99.49     LegendNANA
06:00 Legend Double Dagger 11.8 11.3 97 27 10 0.4 99.53     Fog
07:00 Legend Double Dagger 12.4 11.9 97 26 10 0.4 99.57     Fog
08:00 Legend Double Dagger 13.4 12.9 97 24 12 3.2 99.58     Fog
09:00 Legend Double Dagger 15.1 14.0 93 23 6 8.1 99.57     Fog
10:00 Legend Double Dagger 17.8 14.4 80 21 12 12.9 99.55     Mainly Clear
11:00 Legend Double Dagger 19.6 14.5 72 19 10 16.1 99.50     LegendNANA
12:00 Legend Double Dagger 20.1 16.0 77 14 13 16.1 99.47 25   LegendNANA
13:00 Legend Double Dagger 22.2 13.9 59 22 9 19.3 99.36 26   Clear
14:00 Legend Double Dagger 23.7 14.8 57 20 14 24.1 99.30 28   LegendNANA
15:00 Legend Double Dagger 24.1 13.8 52 20 22 24.1 99.23 27   LegendNANA
16:00 Legend Double Dagger 22.6 15.3 63 15 14 24.1 99.19 27   Mainly Clear
17:00 Legend Double Dagger 23.5 15.2 59 22 23 24.1 99.17 28   LegendNANA
18:00 Legend Double Dagger 21.7 15.4 67 21 28 24.1 99.17 26   LegendNANA
19:00 Legend Double Dagger 20.5 15.4 72 22 21 24.1 99.18 25   Clear
20:00 Legend Double Dagger 19.7 15.4 76 21 18 24.1 99.18     LegendNANA
21:00 Legend Double Dagger 18.9 15.4 80 21 15 24.1 99.18     LegendNANA
22:00 Legend Double Dagger 18.2 15.3 83 24 11 24.1 99.20     Clear
23:00 Legend Double Dagger 18.5 15.2 81 26 22 24.1 99.20     LegendNANA

Notes on Data Quality.

Legend

  • E = Estimated
  • M = Missing
  • NA = Not Available
  • ‡ = Partner data that is not subject to review by the National Climate Archives
Date modified: